KTVK

Details ICAO KTVK
Name CENTERVILLE MUNI
Region United States
Timezone America/Chicago (UTC-5.0)
Plans Departing 1
Arriving 1
Stats Elevation 1,028 ft / 313 m (AMSL)
Location 40.685470° -92.901444°
Runways 1
Magnetic Variation 0.283° E
Sunrise 2018-05-24 10:48:40 UTC / 2018-05-24 05:48:40 Local
Sunset 2018-05-25 01:31:08 UTC / 2018-05-24 20:31:08 Local
Advertisement - Login to hide

Runways

ID Width Length Bearing (true) Bearing (mag) Surface Threshold Offset Overrun Length
16 75 ft / 23 m 4,105 ft / 1,251 m 158.51° 158.23° Concrete 0 ft / 0 m 0 ft / 0 m
34 75 ft / 23 m 4,105 ft / 1,251 m 338.52° 338.24° Concrete 0 ft / 0 m 0 ft / 0 m

Map

Weather


0- 5 10 15 20 25 30 35+ Temperature / ° C

Clouds and Precipitation
Forecast for 2018-05-24 18:00 UTC. Updated 44 minutes ago

Ground ~20,000 ft ~40,000 ft Winds

METAR

KTVK 241755Z AUTO 19011G15KT 10SM 29/18 A3011 RMK AO2

TAF

Not found

Frequencies

Unicom 122.80 MHz CTAF/UNICOM
Warning: Do not use this data for real-world aviation or navigation. No guarantee of current accuracy is given.